Showing default

GARAI-A, 62635

Orbit data source: Space-Track

GARAI-A, 62635 is a payload satellite owned by Satlantis (ES) in SSO that was launched on Tue, 14 Jan 2025 UTC via an FALCON 9 launch vehicle from the Air Force Western Test Range (AFWTR). Payload-class satellites include a variety of spacecraft equipped with specific instruments for various scientific and technological missions. These include communications satellites like Starlink; space stations such as the ISS; scientific satellites like the Hubble; Earth observation satellites from companies like Planet Labs, Umbra, and HawkEye 360; GPS; miniature CubeSats for education and research; and military/defense satellites.

Loading next visibility...
Identifier
62635, 2025-009AC
Orbit
SSO
Last TLE update
9 hours ago
Origin
Manufacturer
OHB-SE
Mission
Operational Commercial Imaging
Bus & Motor
INNOSAT, Unknown motor
Mass
115 kg wet, 115 kg dry
Launch date (UTC)
2025-01-14 (4 months ago)
Launch vehicle
FALCON 9
Launch site
Air Force Western Test Range (AFWTR)
Object type
Payload
Rocket body
Debris
Shape & HBR
Box, 5.3 m
Radar Cross Section
1.305 m², Medium (>0.1 m² and < 1m²)

Expand to show TLE details & history

TLE from 9 hours ago
0 GARAI-A
1 62635U 25009AC  25128.92004602  .00011118  00000-0  50382-3 0  9992
2 62635  97.4305 209.8557 0001146 298.1322  61.9797 15.21022279 17320
Epoch: 2025-05-08T22:04Z
Definitive object data (Epoch: 2025-05-08T22:04:51.976Z)
Latitude
-0.00007°
Longitude
11.65552°
Altitude
505.476 km
Speed
7.612 km/s
True Right ascension
13h 59m 25s
True Declination
0° 00' 00"
Sunlit
Object was in full shadow at TLE epoch
Visualization TLE readout
Latitude
-10.03266°
Longitude
-169.30063°
Altitude
507.896 km
Speed
7.609 km/s
Apparent Right ascension
02h 21m 28s
Apparent Declination
-24° 26' 52"
Sunlit
Object is in daylight
Visualization observer readout
Local Sidereal Time
14:57:23
Azimuth
28.687° NE
Elevation
-72.79°
Doppler factor
1
Orbital elements
Apogee altitude
500.51 km
Perigee altitude
498.933 km
Semi-major axis
6,877.858 km
Eccentricity
0.0001146
Inclination
97.4305°
RAAN
209.8557°
Arg. of periapsis
298.1322°
True anomaly
61.99129°
Mean anomaly
61.9797°
Eccentric anomaly
61.9855°
Mean motion
3.80508 °/min
BSTAR
0.00050382
Orbital period
94.61 mins
Loading maneuver chart data...
Loading SW <> Apogee altitude chart data...
Loading historical data...
Loading historical data...
Loading historical data...
Loading historical data...
Loading historical data...
Loading historical data...
Loading historical data...

GARAI-A Visibility forecast

Observer location: undefined°, undefined°

Span
Click to sort rows by Start time (UTC) header in descending order
Start Az.
Max El. time (UTC)
Max El. Az.
Max El.
End time (UTC)
End Az.
5 mins2025-05-09 17:36:29.285Z46.517° ENE2025-05-09 17:38:29.285Z89.756° E24.419°2025-05-09 17:41:29.285Z152.779° SSE
5 mins2025-05-10 05:47:29.285Z195.934° SSW2025-05-10 05:49:29.285Z241.815° WSW33.28°2025-05-10 05:52:29.285Z328.125° NNW
|